| time (UTC) | temp F | wind direction | speed MPH | gust MPH | rain 1hr in | rain 24hr in | rain mn in | humidity % | barometer mb |
| 20260903205402 | 99 | 117 | 2.0 | 6.0 | 0.00 | 0.00 | 0.00 | 51 | 1015.0 |
| 20260903204502 | 99 | 111 | 3.0 | 11.0 | 0.00 | 0.00 | 0.00 | 52 | 1015.2 |
| 20260903203602 | 100 | 118 | 2.0 | 5.0 | 0.00 | 0.00 | 0.00 | 52 | 1015.2 |
| 20260903202702 | 99 | 111 | 2.0 | 10.0 | 0.00 | 0.00 | 0.00 | 53 | 1015.3 |
| 20260903201802 | 99 | 134 | 2.0 | 10.0 | 0.00 | 0.00 | 0.00 | 52 | 1015.3 |
| 20260903200902 | 100 | 127 | 2.0 | 6.0 | 0.00 | 0.00 | 0.00 | 52 | 1015.4 |
| 20260903200001 | 99 | 108 | 2.0 | 6.0 | 0.00 | 0.00 | 0.00 | 53 | 1015.6 |
| 20260903195402 | 98 | 104 | 2.0 | 6.0 | 0.00 | 0.00 | 0.00 | 53 | 1015.8 |
| 20260903194523 | 98 | 129 | 3.0 | 10.0 | 0.00 | 0.00 | 0.00 | 54 | 1015.8 |
| 20260903193602 | 99 | 135 | 2.0 | 6.0 | 0.00 | 0.00 | 0.00 | 53 | 1015.8 |
| 20260903192702 | 99 | 139 | 3.0 | 7.0 | 0.00 | 0.00 | 0.00 | 53 | 1015.9 |
| 20260903191802 | 99 | 125 | 1.0 | 7.0 | 0.00 | 0.00 | 0.00 | 54 | 1016.0 |
| 20260903190902 | 97 | 123 | 4.0 | 9.0 | 0.00 | 0.00 | 0.00 | 55 | 1016.1 |
| 20260903190002 | 98 | 107 | 2.0 | 8.0 | 0.00 | 0.00 | 0.00 | 55 | 1016.1 |
| 20260903185402 | 97 | 123 | 4.0 | 10.0 | 0.00 | 0.00 | 0.00 | 56 | 1016.3 |
| 20260903184502 | 96 | 115 | 2.0 | 9.0 | 0.00 | 0.00 | 0.00 | 57 | 1016.4 |
| 20260903183602 | 97 | 124 | 2.0 | 6.0 | 0.00 | 0.00 | 0.00 | 54 | 1016.4 |
| 20260903182723 | 98 | 124 | 2.0 | 6.0 | 0.00 | 0.00 | 0.00 | 54 | 1016.5 |
| 20260903181802 | 98 | 39 | 1.0 | 5.0 | 0.00 | 0.00 | 0.00 | 56 | 1016.5 |
| 20260903180902 | 97 | 130 | 1.0 | 6.0 | 0.00 | 0.00 | 0.00 | 56 | 1016.6 |
| 20260903180023 | 96 | 167 | 1.0 | 6.0 | 0.00 | 0.00 | 0.00 | 57 | 1016.6 |
| 20260903175402 | 96 | 177 | 2.0 | 6.0 | 0.00 | 0.00 | 0.00 | 58 | 1016.7 |
| 20260903174502 | 97 | 133 | 3.0 | 6.0 | 0.00 | 0.00 | 0.00 | 57 | 1016.7 |
| 20260903173602 | 98 | 95 | 3.0 | 9.0 | 0.00 | 0.00 | 0.00 | 54 | 1016.8 |
| 20260903172723 | 98 | 109 | 1.0 | 5.0 | 0.00 | 0.00 | 0.00 | 57 | 1016.8 |
| 20260903171802 | 96 | 324 | 1.0 | 4.0 | 0.00 | 0.00 | 0.00 | 59 | 1017.0 |
| 20260903170902 | 95 | 145 | 2.0 | 5.0 | 0.00 | 0.00 | 0.00 | 59 | 1017.1 |
| 20260903170002 | 96 | 106 | 1.0 | 3.0 | 0.00 | 0.00 | 0.00 | 59 | 1017.2 |
| 20260903165402 | 98 | 110 | 0.0 | 3.0 | 0.00 | 0.00 | 0.00 | 58 | 1017.2 |
| 20260903164502 | 97 | 111 | 3.0 | 9.0 | 0.00 | 0.00 | 0.00 | 58 | 1017.3 |
| 20260903163602 | 97 | 110 | 2.0 | 5.0 | 0.00 | 0.00 | 0.00 | 58 | 1017.4 |
| 20260903162703 | 95 | 111 | 3.0 | 6.0 | 0.00 | 0.00 | 0.00 | 59 | 1017.4 |
| 20260903161802 | 95 | 150 | 2.0 | 7.0 | 0.00 | 0.00 | 0.00 | 62 | 1017.4 |
| 20260903160902 | 95 | 134 | 2.0 | 7.0 | 0.00 | 0.00 | 0.00 | 65 | 1017.6 |
| 20260903160002 | 94 | 167 | 2.0 | 5.0 | 0.00 | 0.00 | 0.00 | 64 | 1017.7 |
| 20260903155403 | 94 | 146 | 2.0 | 4.0 | 0.00 | 0.00 | 0.00 | 67 | 1017.6 |
| 20260903154503 | 93 | 116 | 3.0 | 8.0 | 0.00 | 0.00 | 0.00 | 66 | 1017.7 |
| 20260903153602 | 94 | 141 | 1.0 | 4.0 | 0.00 | 0.00 | 0.00 | 66 | 1017.6 |
| 20260903152723 | 92 | 160 | 2.0 | 5.0 | 0.00 | 0.00 | 0.00 | 67 | 1017.7 |
| 20260903151802 | 92 | 185 | 1.0 | 4.0 | 0.00 | 0.00 | 0.00 | 68 | 1017.7 |
| 20260903150924 | 91 | 216 | 1.0 | 4.0 | 0.00 | 0.00 | 0.00 | 68 | 1017.8 |
| 20260903150002 | 91 | 151 | 2.0 | 5.0 | 0.00 | 0.00 | 0.00 | 69 | 1017.8 |
| 20260903145403 | 90 | 153 | 1.0 | 5.0 | 0.00 | 0.00 | 0.00 | 70 | 1017.7 |
| 20260903144503 | 90 | 125 | 2.0 | 4.0 | 0.00 | 0.00 | 0.00 | 70 | 1017.7 |
| 20260903143603 | 90 | 175 | 1.0 | 3.0 | 0.00 | 0.00 | 0.00 | 70 | 1017.6 |
| 20260903142702 | 89 | 206 | 1.0 | 4.0 | 0.00 | 0.00 | 0.00 | 72 | 1017.6 |
| 20260903141824 | 87 | 236 | 1.0 | 4.0 | 0.00 | 0.00 | 0.00 | 73 | 1017.7 |
| 20260903140924 | 87 | 219 | 1.0 | 4.0 | 0.00 | 0.00 | 0.00 | 74 | 1017.8 |
| 20260903140003 | 86 | 233 | 1.0 | 5.0 | 0.00 | 0.00 | 0.00 | 76 | 1017.8 |
| 20260903135402 | 85 | 224 | 1.0 | 6.0 | 0.00 | 0.00 | 0.00 | 77 | 1017.7 |
| 20260903134503 | 84 | 247 | 2.0 | 4.0 | 0.00 | 0.00 | 0.00 | 79 | 1017.8 |
| 20260903133603 | 83 | 260 | 1.0 | 4.0 | 0.00 | 0.00 | 0.00 | 80 | 1017.9 |
| 20260903132703 | 83 | 256 | 1.0 | 4.0 | 0.00 | 0.00 | 0.00 | 81 | 1018.0 |
| 20260903131803 | 82 | 279 | 1.0 | 4.0 | 0.00 | 0.00 | 0.00 | 82 | 1018.0 |
| 20260903130924 | 82 | 286 | 1.0 | 4.0 | 0.00 | 0.00 | 0.00 | 83 | 1018.0 |
| 20260903130003 | 81 | 253 | 2.0 | 5.0 | 0.00 | 0.00 | 0.00 | 84 | 1018.0 |
| 20260903125424 | 80 | 265 | 2.0 | 5.0 | 0.00 | 0.00 | 0.00 | 85 | 1018.1 |
| 20260903124503 | 80 | 272 | 1.0 | 4.0 | 0.00 | 0.00 | 0.00 | 86 | 1018.1 |
| 20260903123603 | 78 | 272 | 0.0 | 3.0 | 0.00 | 0.00 | 0.00 | 88 | 1018.0 |
| 20260903122703 | 77 | 335 | 0.0 | 3.0 | 0.00 | 0.00 | 0.00 | 91 | 1018.0 |
| 20260903121803 | 76 | 27 | 0.0 | 8.0 | 0.00 | 0.00 | 0.00 | 93 | 1018.1 |
| 20260903120903 | 75 | 357 | 0.0 | 1.0 | 0.00 | 0.00 | 0.00 | 94 | 1018.1 |
| 20260903120003 | 74 | 0 | 0.0 | 0.0 | 0.00 | 0.00 | 0.00 | 94 | 1018.1 |
| 20260903115403 | 74 | 0 | 0.0 | 0.0 | 0.00 | 0.00 | 0.00 | 94 | 1018.0 |
| 20260903114503 | 74 | 0 | 0.0 | 0.0 | 0.00 | 0.00 | 0.00 | 94 | 1018.0 |
| 20260903113603 | 73 | 0 | 0.0 | 0.0 | 0.00 | 0.00 | 0.00 | 94 | 1017.9 |
| 20260903112703 | 73 | 0 | 0.0 | 0.0 | 0.00 | 0.00 | 0.00 | 94 | 1017.8 |
| 20260903111824 | 73 | 0 | 0.0 | 0.0 | 0.00 | 0.00 | 0.00 | 94 | 1017.7 |
| 20260903110903 | 73 | 0 | 0.0 | 0.0 | 0.00 | 0.00 | 0.00 | 94 | 1017.6 |
| 20260903110003 | 74 | 0 | 0.0 | 0.0 | 0.00 | 0.00 | 0.00 | 93 | 1017.5 |
| 20260903105403 | 74 | 0 | 0.0 | 0.0 | 0.00 | 0.00 | 0.00 | 93 | 1017.5 |
| 20260903104503 | 74 | 0 | 0.0 | 0.0 | 0.00 | 0.00 | 0.00 | 93 | 1017.4 |
| 20260903103603 | 74 | 0 | 0.0 | 0.0 | 0.00 | 0.00 | 0.00 | 93 | 1017.4 |
| 20260903102703 | 74 | 301 | 0.0 | 1.0 | 0.00 | 0.00 | 0.00 | 93 | 1017.2 |
| 20260903101803 | 74 | 0 | 0.0 | 0.0 | 0.00 | 0.00 | 0.00 | 92 | 1017.2 |
| 20260903100903 | 74 | 0 | 0.0 | 0.0 | 0.00 | 0.00 | 0.00 | 92 | 1017.3 |
| 20260903095959 | 74 | 0 | 0.0 | 0.0 | 0.00 | 0.00 | 0.00 | 92 | 1017.2 |
| 20260903095421 | 74 | 0 | 0.0 | 0.0 | 0.00 | 0.00 | 0.00 | 92 | 1017.2 |
| 20260903094459 | 75 | 0 | 0.0 | 0.0 | 0.00 | 0.00 | 0.00 | 91 | 1017.3 |
| 20260903093600 | 75 | 0 | 0.0 | 0.0 | 0.00 | 0.00 | 0.00 | 91 | 1017.2 |
| 20260903092700 | 75 | 0 | 0.0 | 0.0 | 0.00 | 0.00 | 0.00 | 91 | 1017.3 |
| 20260903091800 | 75 | 0 | 0.0 | 0.0 | 0.00 | 0.00 | 0.00 | 90 | 1017.1 |
| 20260903090900 | 76 | 0 | 0.0 | 0.0 | 0.00 | 0.00 | 0.00 | 90 | 1017.0 |
| 20260903090000 | 76 | 0 | 0.0 | 0.0 | 0.00 | 0.00 | 0.00 | 89 | 1017.0 |
| 20260903085400 | 76 | 0 | 0.0 | 0.0 | 0.00 | 0.00 | 0.00 | 89 | 1017.0 |
| 20260903084500 | 77 | 0 | 0.0 | 0.0 | 0.00 | 0.00 | 0.00 | 88 | 1017.0 |
| 20260903083621 | 77 | 0 | 0.0 | 0.0 | 0.00 | 0.00 | 0.00 | 87 | 1017.0 |
| 20260903082700 | 78 | 284 | 0.0 | 1.0 | 0.00 | 0.00 | 0.00 | 87 | 1016.9 |
| 20260903081800 | 78 | 287 | 0.0 | 2.0 | 0.00 | 0.00 | 0.00 | 86 | 1016.8 |
| 20260903080921 | 78 | 280 | 0.0 | 2.0 | 0.00 | 0.00 | 0.00 | 87 | 1016.8 |
| 20260903080000 | 78 | 269 | 0.0 | 3.0 | 0.00 | 0.00 | 0.00 | 87 | 1016.7 |
| 20260903075400 | 78 | 284 | 0.0 | 1.0 | 0.00 | 0.00 | 0.00 | 87 | 1016.8 |
| 20260903074500 | 78 | 0 | 0.0 | 0.0 | 0.00 | 0.00 | 0.00 | 87 | 1016.8 |
| 20260903073600 | 78 | 0 | 0.0 | 0.0 | 0.00 | 0.00 | 0.00 | 87 | 1016.8 |
| 20260903072700 | 78 | 0 | 0.0 | 0.0 | 0.00 | 0.00 | 0.00 | 86 | 1016.7 |
| 20260903071800 | 79 | 211 | 0.0 | 1.0 | 0.00 | 0.00 | 0.00 | 86 | 1016.6 |
| 20260903070900 | 79 | 260 | 0.0 | 2.0 | 0.00 | 0.00 | 0.00 | 85 | 1016.5 |
| 20260903070021 | 79 | 264 | 0.0 | 4.0 | 0.00 | 0.00 | 0.00 | 85 | 1016.4 |
| 20260903065400 | 79 | 258 | 0.0 | 4.0 | 0.00 | 0.00 | 0.00 | 85 | 1016.4 |
| 20260903064500 | 79 | 273 | 0.0 | 3.0 | 0.00 | 0.00 | 0.00 | 85 | 1016.4 |
| 20260903063600 | 79 | 235 | 0.0 | 3.0 | 0.00 | 0.00 | 0.00 | 85 | 1016.3 |
| 20260903062700 | 79 | 70 | 0.0 | 2.0 | 0.00 | 0.00 | 0.00 | 85 | 1016.2 |
| 20260903061800 | 79 | 341 | 0.0 | 2.0 | 0.00 | 0.00 | 0.00 | 85 | 1016.3 |
| 20260903060900 | 79 | 323 | 0.0 | 2.0 | 0.00 | 0.00 | 0.00 | 85 | 1016.4 |
| 20260903060021 | 80 | 119 | 0.0 | 2.0 | 0.00 | 0.00 | 0.00 | 85 | 1016.6 |
| 20260903055421 | 79 | 151 | 0.0 | 3.0 | 0.00 | 0.00 | 0.00 | 86 | 1016.8 |
| 20260903054500 | 79 | 123 | 0.0 | 1.0 | 0.00 | 0.00 | 0.00 | 86 | 1016.8 |
| 20260903053600 | 79 | 135 | 0.0 | 2.0 | 0.00 | 0.00 | 0.00 | 86 | 1016.9 |
| 20260903052700 | 79 | 111 | 0.0 | 2.0 | 0.00 | 0.00 | 0.00 | 86 | 1017.0 |
| 20260903051800 | 79 | 88 | 0.0 | 1.0 | 0.00 | 0.00 | 0.00 | 86 | 1016.8 |
| 20260903050901 | 79 | 0 | 0.0 | 0.0 | 0.00 | 0.00 | 0.00 | 87 | 1016.9 |
| 20260903050000 | 79 | 123 | 0.0 | 1.0 | 0.00 | 0.00 | 0.00 | 86 | 1016.9 |
| 20260903045421 | 79 | 125 | 0.0 | 1.0 | 0.00 | 0.00 | 0.00 | 86 | 1016.9 |
| 20260903044501 | 79 | 127 | 0.0 | 1.0 | 0.00 | 0.00 | 0.00 | 86 | 1016.9 |
| 20260903043622 | 79 | 127 | 0.0 | 1.0 | 0.00 | 0.00 | 0.00 | 86 | 1016.9 |
| 20260903042700 | 79 | 0 | 0.0 | 0.0 | 0.00 | 0.00 | 0.00 | 86 | 1016.9 |
| 20260903041800 | 80 | 127 | 0.0 | 1.0 | 0.00 | 0.00 | 0.00 | 86 | 1016.9 |
| 20260903040922 | 80 | 0 | 0.0 | 0.0 | 0.00 | 0.00 | 0.00 | 85 | 1017.0 |
| 20260903040001 | 80 | 127 | 0.0 | 1.0 | 0.00 | 0.00 | 0.00 | 84 | 1016.9 |
| 20260903035401 | 80 | 114 | 0.0 | 1.0 | 0.00 | 0.00 | 0.00 | 85 | 1017.0 |
| 20260903034501 | 80 | 117 | 0.0 | 1.0 | 0.00 | 0.00 | 0.00 | 86 | 1017.1 |
| 20260903033600 | 80 | 118 | 0.0 | 1.0 | 0.00 | 0.00 | 0.00 | 86 | 1017.2 |
| 20260903032701 | 80 | 0 | 0.0 | 0.0 | 0.00 | 0.00 | 0.00 | 87 | 1017.2 |
| 20260903031801 | 80 | 0 | 0.0 | 0.0 | 0.00 | 0.00 | 0.00 | 85 | 1017.4 |
| 20260903030901 | 80 | 125 | 0.0 | 1.0 | 0.00 | 0.00 | 0.00 | 84 | 1017.3 |
| 20260903030001 | 80 | 104 | 0.0 | 1.0 | 0.00 | 0.00 | 0.00 | 84 | 1017.3 |
| 20260903025401 | 80 | 97 | 0.0 | 1.0 | 0.00 | 0.00 | 0.00 | 83 | 1017.4 |
| 20260903024501 | 81 | 0 | 0.0 | 0.0 | 0.00 | 0.00 | 0.00 | 83 | 1017.3 |
| 20260903023622 | 81 | 0 | 0.0 | 0.0 | 0.00 | 0.00 | 0.00 | 82 | 1017.2 |
| 20260903022722 | 81 | 97 | 0.0 | 1.0 | 0.00 | 0.00 | 0.00 | 82 | 1017.4 |
| 20260903021801 | 81 | 97 | 0.0 | 3.0 | 0.00 | 0.00 | 0.00 | 83 | 1017.4 |
| 20260903020901 | 81 | 131 | 0.0 | 1.0 | 0.00 | 0.00 | 0.00 | 83 | 1017.3 |
| 20260903020001 | 81 | 0 | 0.0 | 0.0 | 0.00 | 0.00 | 0.00 | 84 | 1017.2 |
| 20260903015422 | 82 | 0 | 0.0 | 0.0 | 0.00 | 0.00 | 0.00 | 84 | 1017.1 |
| 20260903014501 | 82 | 0 | 0.0 | 0.0 | 0.00 | 0.00 | 0.00 | 82 | 1017.0 |
| 20260903013622 | 82 | 0 | 0.0 | 0.0 | 0.00 | 0.00 | 0.00 | 82 | 1017.1 |
| 20260903012701 | 82 | 0 | 0.0 | 0.0 | 0.00 | 0.00 | 0.00 | 81 | 1016.9 |
| 20260903011801 | 83 | 0 | 0.0 | 0.0 | 0.00 | 0.00 | 0.00 | 81 | 1016.8 |
| 20260903010901 | 83 | 0 | 0.0 | 0.0 | 0.00 | 0.00 | 0.00 | 80 | 1016.6 |
| 20260903010001 | 84 | 0 | 0.0 | 0.0 | 0.00 | 0.00 | 0.00 | 79 | 1016.5 |
| 20260903005401 | 84 | 0 | 0.0 | 0.0 | 0.00 | 0.00 | 0.00 | 78 | 1016.5 |
| 20260903004501 | 84 | 0 | 0.0 | 0.0 | 0.00 | 0.00 | 0.00 | 78 | 1016.4 |
| 20260903003601 | 85 | 0 | 0.0 | 0.0 | 0.00 | 0.00 | 0.00 | 77 | 1016.3 |
| 20260903002701 | 86 | 0 | 0.0 | 0.0 | 0.00 | 0.00 | 0.00 | 76 | 1016.2 |
| 20260903001801 | 86 | 0 | 0.0 | 0.0 | 0.00 | 0.00 | 0.00 | 74 | 1016.1 |
| 20260903000901 | 87 | 0 | 0.0 | 0.0 | 0.00 | 0.00 | 0.00 | 73 | 1016.1 |
| 20260903000001 | 88 | 0 | 0.0 | 0.0 | 0.00 | 0.00 | 0.00 | 71 | 1016.1 |
| 20260902235401 | 90 | 0 | 0.0 | 0.0 | 0.00 | 0.00 | 0.00 | 69 | 1016.1 |
| 20260902234501 | 91 | 0 | 0.0 | 0.0 | 0.00 | 0.00 | 0.00 | 69 | 1015.9 |
| 20260902233601 | 93 | 0 | 0.0 | 0.0 | 0.00 | 0.00 | 0.00 | 66 | 1016.0 |
| 20260902232722 | 95 | 0 | 0.0 | 0.0 | 0.00 | 0.00 | 0.00 | 64 | 1016.0 |
| 20260902231802 | 96 | 0 | 0.0 | 0.0 | 0.00 | 0.00 | 0.00 | 62 | 1016.0 |
| 20260902230901 | 97 | 130 | 0.0 | 1.0 | 0.00 | 0.00 | 0.00 | 57 | 1015.9 |
| 20260902230001 | 98 | 0 | 0.0 | 0.0 | 0.00 | 0.00 | 0.00 | 56 | 1015.9 |
| 20260902225401 | 99 | 0 | 0.0 | 0.0 | 0.00 | 0.00 | 0.00 | 56 | 1015.8 |
| 20260902224501 | 98 | 266 | 0.0 | 2.0 | 0.00 | 0.00 | 0.00 | 56 | 1015.9 |
| 20260902223623 | 98 | 134 | 0.0 | 3.0 | 0.00 | 0.00 | 0.00 | 53 | 1015.9 |
| 20260902222722 | 98 | 214 | 1.0 | 3.0 | 0.00 | 0.00 | 0.00 | 55 | 1016.0 |
| 20260902221801 | 98 | 243 | 1.0 | 4.0 | 0.00 | 0.00 | 0.00 | 54 | 1016.0 |
| 20260902220902 | 98 | 139 | 0.0 | 4.0 | 0.00 | 0.00 | 0.00 | 53 | 1016.2 |
| 20260902220023 | 98 | 174 | 0.0 | 3.0 | 0.00 | 0.00 | 0.00 | 53 | 1016.1 |
| 20260902215401 | 98 | 159 | 1.0 | 3.0 | 0.00 | 0.00 | 0.00 | 51 | 1016.2 |
| 20260902214502 | 99 | 231 | 1.0 | 4.0 | 0.00 | 0.00 | 0.00 | 53 | 1016.1 |
| 20260902213601 | 99 | 290 | 1.0 | 4.0 | 0.00 | 0.00 | 0.00 | 51 | 1016.2 |
| 20260902212701 | 99 | 140 | 1.0 | 4.0 | 0.00 | 0.00 | 0.00 | 51 | 1016.1 |
| 20260902211801 | 98 | 113 | 2.0 | 5.0 | 0.00 | 0.00 | 0.00 | 53 | 1016.1 |
| 20260902210923 | 98 | 239 | 2.0 | 5.0 | 0.00 | 0.00 | 0.00 | 54 | 1016.1 |
| 20260902210002 | 98 | 257 | 1.0 | 4.0 | 0.00 | 0.00 | 0.00 | 52 | 1016.2 |